Tracking 29591 objects as of 20-Sep-2024
HD Live streaming from Space Station
objects crossing your sky now

SES MPOWER-A F2

Track SES MPOWER-A F2 now!
10-day predictions


NORAD ID: 54756
Int'l Code: 2022-174B
Perigee: 8,065.1 km
Apogee: 8,081.0 km
Inclination: 0.1 °
Period: 287.9 minutes
Semi major axis: 14444 km
RCS: Unknown
Launch date: December 16, 2022
Source: SOCIETE EUROPEENNE DES SATELLITES (SES)
Launch site: AIR FORCE EASTERN TEST RANGE (AFETR)
Your satellite tracking list
Your tracking list is empty




NASA's NSSDC Master Catalog

Two Line Element Set (TLE):
1 54756U 22174B   24263.22370837 -.00000019  00000-0  00000-0 0  9993
2 54756   0.0508 344.0761 0005519 197.1668 178.7583  5.00113863 33625
Source of the keplerian elements: AFSPC